BULGARIASAT-1

Last updated on Sun Apr 12 2026 00:02:54 GMT+0000 (Coordinated Universal Time)

1 42801U 17038A 26101.02194832 .00000012 00000+0 00000+0 0 9994 2 42801 0.0647 83.9162 0003469 317.4683 167.6579 1.00270026 32179
UTC large
Height (km)
Speed (km/s)
/
Latitude / Longitude
Inclination (degrees)
Orbital Period (minutes)
Azimuth
Elevation
Range (km)
Doppler Factor

Next 0 passes for location: London (51.5072 / 0.1276)

Sorry there are no passes over London.
BULGARIASAT-1